,,Stat6,,Stat2,,Stat8,,Stat9,,Stat10,,Wind1,,Wind1,
time,status,PA1M_AVG,status,PR1M_SUM,status,RH1M_AVG,status,SR1M_AVG,status,TA1M_AVG,status,W1dAve1m,status,W1sAve1m,
2008-12-01, 00:00:00,VALID,918.82,VALID,0,VALID,91.4869,VALID,0.0339617,VALID,19.2219,VALID,17,VALID,1.11005,
2008-12-01, 00:01:01,VALID,918.834,VALID,0,VALID,91.4716,VALID,0,VALID,19.2319,VALID,3,VALID,0.521528,
2008-12-01, 00:02:00,VALID,918.793,VALID,0,VALID,91.2834,VALID,0.0339617,VALID,19.2706,VALID,330,VALID,0,
2008-12-01, 00:03:00,VALID,918.78,VALID,0,VALID,90.8193,VALID,0,VALID,19.3749,VALID,5,VALID,0,
2008-12-01, 00:04:00,VALID,918.757,VALID,0,VALID,90.1224,VALID,0.0339617,VALID,19.4977,VALID,25,VALID,0.0959821,
2008-12-01, 00:05:01,VALID,918.768,VALID,0,VALID,89.4141,VALID,0.0509425,VALID,19.6179,VALID,8,VALID,0.156055,
2008-12-01, 00:06:01,VALID,918.779,VALID,0,VALID,88.875,VALID,0.0849042,VALID,19.7018,VALID,357,VALID,0,
2008-12-01, 00:07:00,VALID,918.798,VALID,0,VALID,88.7389,VALID,0.0339617,VALID,19.7033,VALID,3,VALID,0,
2008-12-01, 00:08:00,VALID,918.781,VALID,0,VALID,88.9627,VALID,-0.0679233,VALID,19.6614,VALID,291,VALID,0,
2008-12-01, 00:09:00,VALID,918.765,VALID,0,VALID,89.2921,VALID,-0.0339617,VALID,19.5802,VALID,345,VALID,0,
2008-12-01, 00:10:00,VALID,918.76,VALID,0,VALID,89.5998,VALID,-0.101885,VALID,19.5451,VALID,345,VALID,0,
2008-12-01, 00:11:00,VALID,918.743,VALID,0,VALID,89.7206,VALID,-0.0679233,VALID,19.4672,VALID,3,VALID,0,
2008-12-01, 00:12:00,VALID,918.724,VALID,0,VALID,89.9686,VALID,-0.0849042,VALID,19.3983,VALID,5,VALID,0,
2008-12-01, 00:13:01,VALID,918.694,VALID,0,VALID,90.331,VALID,-0.101885,VALID,19.3664,VALID,7,VALID,0.399239,
2008-12-01, 00:14:00,VALID,918.67,VALID,0,VALID,90.4352,VALID,-0.101885,VALID,19.3696,VALID,1,VALID,0.853423,
2008-12-01, 00:15:00,VALID,918.653,VALID,0,VALID,90.3729,VALID,-0.0849042,VALID,19.3763,VALID,14,VALID,1.24888,
2008-12-01, 00:16:00,VALID,918.651,VALID,0,VALID,90.4035,VALID,-0.0849042,VALID,19.3858,VALID,31,VALID,1.14753,
2008-12-01, 00:17:00,VALID,918.635,VALID,0,VALID,90.42,VALID,-0.0679233,VALID,19.3791,VALID,16,VALID,0.997222,
2008-12-01, 00:18:01,VALID,918.633,VALID,0,VALID,90.5141,VALID,-0.0679233,VALID,19.3918,VALID,24,VALID,0.687891,
2008-12-01, 00:19:00,VALID,918.625,VALID,0,VALID,90.2941,VALID,-0.0679233,VALID,19.4053,VALID,7,VALID,0.938802,
2008-12-01, 00:20:00,VALID,918.604,VALID,0,VALID,90.5243,VALID,-0.101885,VALID,19.3863,VALID,12,VALID,0.732465,
2008-12-01, 00:21:00,VALID,918.602,VALID,0,VALID,90.3424,VALID,-0.118866,VALID,19.4085,VALID,347,VALID,0.511814,
2008-12-01, 00:22:00,VALID,918.583,VALID,0,VALID,90.3233,VALID,-0.0679233,VALID,19.4243,VALID,346,VALID,0.626999,
2008-12-01, 00:23:01,VALID,918.58,VALID,0,VALID,90.158,VALID,-0.0509425,VALID,19.4475,VALID,9,VALID,0.849414,
2008-12-01, 00:24:00,VALID,918.571,VALID,0,VALID,90.1351,VALID,-0.0339617,VALID,19.4572,VALID,22,VALID,0.507241,
2008-12-01, 00:25:00,VALID,918.575,VALID,0,VALID,90.1466,VALID,-0.101885,VALID,19.454,VALID,17,VALID,0.511347,
2008-12-01, 00:26:00,VALID,918.569,VALID,0,VALID,90.2865,VALID,-0.0679233,VALID,19.4183,VALID,15,VALID,0.496761,
2008-12-01, 00:27:00,VALID,918.572,VALID,0,VALID,90.5497,VALID,-0.101885,VALID,19.3926,VALID,14,VALID,0.375186,
2008-12-01, 00:28:01,VALID,918.575,VALID,0,VALID,90.7582,VALID,-0.101885,VALID,19.3664,VALID,4,VALID,0.167696,
2008-12-01, 00:29:01,VALID,918.568,VALID,0,VALID,90.8294,VALID,-0.135847,VALID,19.3601,VALID,17,VALID,0,
2008-12-01, 00:30:00,VALID,918.57,VALID,0,VALID,90.9045,VALID,-0.101885,VALID,19.3536,VALID,14,VALID,0,
2008-12-01, 00:31:00,VALID,918.561,VALID,0,VALID,90.968,VALID,-0.101885,VALID,19.3406,VALID,3,VALID,0,
2008-12-01, 00:32:00,VALID,918.525,VALID,0,VALID,91.1194,VALID,-0.101885,VALID,19.3149,VALID,5,VALID,0.220348,
2008-12-01, 00:33:00,VALID,918.519,VALID,0,VALID,90.9401,VALID,-0.0849042,VALID,19.2758,VALID,18,VALID,0.433689,
2008-12-01, 00:34:00,VALID,918.501,VALID,0,VALID,91.4411,VALID,-0.101885,VALID,19.2171,VALID,15,VALID,0.775981,
2008-12-01, 00:35:00,VALID,918.478,VALID,0,VALID,91.4335,VALID,-0.101885,VALID,19.2104,VALID,3,VALID,0.224702,
2008-12-01, 00:36:00,VALID,918.463,VALID,0,VALID,91.6445,VALID,-0.0509425,VALID,19.2006,VALID,22,VALID,0.46782,
2008-12-01, 00:37:01,VALID,918.448,VALID,0,VALID,91.8162,VALID,-0.0509425,VALID,19.2036,VALID,14,VALID,0.880504,
2008-12-01, 00:38:01,VALID,918.427,VALID,0,VALID,91.7857,VALID,-0.0509425,VALID,19.2386,VALID,10,VALID,1.70977,
2008-12-01, 00:39:00,VALID,918.369,VALID,0,VALID,91.5822,VALID,-0.0339617,VALID,19.313,VALID,19,VALID,1.83422,
2008-12-01, 00:40:00,VALID,918.357,VALID,0,VALID,91.1613,VALID,-0.0679233,VALID,19.4205,VALID,324,VALID,1.29315,
2008-12-01, 00:41:00,VALID,918.352,VALID,0,VALID,90.9083,VALID,-0.0509425,VALID,19.4308,VALID,327,VALID,0.468564,
2008-12-01, 00:42:00,VALID,918.347,VALID,0,VALID,91.0405,VALID,0,VALID,19.4108,VALID,32,VALID,0.093564,
2008-12-01, 00:43:01,VALID,918.334,VALID,0,VALID,91.3114,VALID,-0.0339617,VALID,19.3582,VALID,10,VALID,0.164435,
2008-12-01, 00:44:00,VALID,918.328,VALID,0,VALID,91.4233,VALID,-0.0169808,VALID,19.3911,VALID,360,VALID,0.818555,
2008-12-01, 00:45:01,VALID,918.333,VALID,0,VALID,91.127,VALID,-0.0169808,VALID,19.4305,VALID,308,VALID,0.158913,
2008-12-01, 00:46:00,VALID,918.311,VALID,0,VALID,90.9973,VALID,-0.0169808,VALID,19.4208,VALID,348,VALID,0.0131392,
2008-12-01, 00:47:01,VALID,918.282,VALID,0,VALID,91.1461,VALID,-0.0679233,VALID,19.4073,VALID,354,VALID,1.1799,
2008-12-01, 00:48:00,VALID,918.273,VALID,0,VALID,90.9744,VALID,-0.0679233,VALID,19.4203,VALID,22,VALID,0.586632,
2008-12-01, 00:49:00,VALID,918.253,VALID,0,VALID,91.2783,VALID,-0.0169808,VALID,19.3946,VALID,14,VALID,1.13858,
2008-12-01, 00:50:00,VALID,918.251,VALID,0,VALID,91.2974,VALID,0,VALID,19.3814,VALID,19,VALID,0.00868056,
2008-12-01, 00:51:01,VALID,918.226,VALID,0,VALID,91.2809,VALID,-0.0339617,VALID,19.3262,VALID,37,VALID,0,
2008-12-01, 00:52:00,VALID,918.213,VALID,0,VALID,91.6318,VALID,-0.0169808,VALID,19.2548,VALID,24,VALID,0,
2008-12-01, 00:53:01,VALID,918.203,VALID,0,VALID,92.0972,VALID,-0.0679233,VALID,19.2094,VALID,16,VALID,0,
2008-12-01, 00:54:01,VALID,918.209,VALID,0,VALID,92.0921,VALID,-0.0679233,VALID,19.2421,VALID,16,VALID,0,
2008-12-01, 00:55:01,VALID,918.217,VALID,0,VALID,92.0502,VALID,-0.0509425,VALID,19.2229,VALID,5,VALID,0.0171875,
2008-12-01, 00:56:01,VALID,918.209,VALID,0,VALID,92.068,VALID,-0.0849042,VALID,19.2131,VALID,23,VALID,0.396007,
2008-12-01, 00:57:01,VALID,918.212,VALID,0,VALID,92.185,VALID,-0.0169808,VALID,19.1899,VALID,5,VALID,0.293605,
2008-12-01, 00:58:01,VALID,918.217,VALID,0,VALID,92.1468,VALID,0,VALID,19.167,VALID,4,VALID,0.528232,
2008-12-01, 00:59:01,VALID,918.217,VALID,0,VALID,92.2511,VALID,-0.0339617,VALID,19.1547,VALID,15,VALID,0.345139,
2008-12-01, 01:00:01,VALID,918.217,VALID,0,VALID,92.3846,VALID,0,VALID,19.1088,VALID,10,VALID,0,
2008-12-01, 01:01:00,VALID,918.239,VALID,0,VALID,92.5143,VALID,-0.0339617,VALID,19.0607,VALID,12,VALID,0.170922,
2008-12-01, 01:02:00,VALID,918.239,VALID,0,VALID,92.6682,VALID,-0.0509425,VALID,19.031,VALID,338,VALID,0.180753,
2008-12-01, 01:03:00,VALID,918.225,VALID,0,VALID,93.0789,VALID,-0.0169808,VALID,18.9821,VALID,281,VALID,0.278125,
2008-12-01, 01:04:00,VALID,918.233,VALID,0,VALID,93.234,VALID,-0.0169808,VALID,18.9534,VALID,304,VALID,0.142113,
2008-12-01, 01:05:00,VALID,918.242,VALID,0,VALID,93.3816,VALID,-0.0339617,VALID,18.9242,VALID,320,VALID,0.00285823,
2008-12-01, 01:06:00,VALID,918.256,VALID,0,VALID,93.44,VALID,-0.0169808,VALID,18.9012,VALID,76,VALID,0.000186012,
2008-12-01, 01:07:00,VALID,918.28,VALID,0,VALID,93.4807,VALID,-0.0339617,VALID,18.8493,VALID,94,VALID,0.054497,
2008-12-01, 01:08:00,VALID,918.286,VALID,0,VALID,93.6766,VALID,-0.0339617,VALID,18.8331,VALID,94,VALID,0,
2008-12-01, 01:09:00,VALID,918.29,VALID,0,VALID,93.7859,VALID,-0.0339617,VALID,18.8266,VALID,94,VALID,0,
2008-12-01, 01:10:00,VALID,918.271,VALID,0,VALID,93.9411,VALID,-0.0169808,VALID,18.8072,VALID,54,VALID,0.174107,
2008-12-01, 01:11:00,VALID,918.268,VALID,0,VALID,94.0479,VALID,-0.0339617,VALID,18.8493,VALID,298,VALID,0.195112,
2008-12-01, 01:12:00,VALID,918.248,VALID,0,VALID,93.4477,VALID,-0.0169808,VALID,18.8466,VALID,311,VALID,0,
2008-12-01, 01:13:00,VALID,918.223,VALID,0,VALID,93.7198,VALID,-0.0339617,VALID,18.8104,VALID,311,VALID,0,
2008-12-01, 01:14:00,VALID,918.198,VALID,0,VALID,93.7185,VALID,-0.0339617,VALID,18.8336,VALID,311,VALID,0,
2008-12-01, 01:15:00,VALID,918.171,VALID,0,VALID,93.3447,VALID,-0.0169808,VALID,18.778,VALID,311,VALID,0,
2008-12-01, 01:16:00,VALID,918.167,VALID,0,VALID,93.4884,VALID,0,VALID,18.6774,VALID,330,VALID,0.0591518,
2008-12-01, 01:17:00,VALID,918.164,VALID,0,VALID,94.3251,VALID,0,VALID,18.6123,VALID,26,VALID,0.621951,
2008-12-01, 01:18:00,VALID,918.177,VALID,0,VALID,94.362,VALID,-0.0509425,VALID,18.5831,VALID,22,VALID,0,
2008-12-01, 01:19:00,VALID,918.182,VALID,0,VALID,94.6582,VALID,0,VALID,18.547,VALID,22,VALID,0,
2008-12-01, 01:20:00,VALID,918.184,VALID,0,VALID,94.8134,VALID,-0.0339617,VALID,18.5312,VALID,22,VALID,0,
2008-12-01, 01:21:00,VALID,918.168,VALID,0,VALID,95.0893,VALID,-0.0169808,VALID,18.528,VALID,22,VALID,0,
2008-12-01, 01:22:00,VALID,918.158,VALID,0,VALID,95.1008,VALID,-0.0169808,VALID,18.5375,VALID,22,VALID,0,
2008-12-01, 01:23:00,VALID,918.15,VALID,0,VALID,95.2152,VALID,-0.0169808,VALID,18.5509,VALID,329,VALID,0,
2008-12-01, 01:24:00,VALID,918.12,VALID,0,VALID,94.882,VALID,-0.0509425,VALID,18.5542,VALID,306,VALID,0,
2008-12-01, 01:25:00,VALID,918.101,VALID,0,VALID,94.9456,VALID,-0.0169808,VALID,18.5152,VALID,310,VALID,0,
2008-12-01, 01:26:00,VALID,918.083,VALID,0,VALID,94.6328,VALID,-0.0169808,VALID,18.4601,VALID,4,VALID,0.45277,
2008-12-01, 01:27:00,VALID,918.074,VALID,0,VALID,95.7658,VALID,-0.0509425,VALID,18.4471,VALID,10,VALID,0.719105,
2008-12-01, 01:28:00,VALID,918.078,VALID,0,VALID,95.7251,VALID,-0.0509425,VALID,18.5178,VALID,49,VALID,0.00657895,
2008-12-01, 01:29:00,VALID,918.084,VALID,0,VALID,95.5229,VALID,-0.0339617,VALID,18.5347,VALID,49,VALID,0,
2008-12-01, 01:30:00,VALID,918.078,VALID,0,VALID,95.5077,VALID,0,VALID,18.5245,VALID,49,VALID,0,
2008-12-01, 01:31:00,VALID,918.085,VALID,0,VALID,95.701,VALID,-0.0169808,VALID,18.544,VALID,34,VALID,0,
2008-12-01, 01:32:00,VALID,918.088,VALID,0,VALID,95.2038,VALID,-0.0339617,VALID,18.5479,VALID,27,VALID,0,
2008-12-01, 01:33:00,VALID,918.093,VALID,0,VALID,95.1745,VALID,-0.0169808,VALID,18.5055,VALID,27,VALID,0,
2008-12-01, 01:34:00,VALID,918.055,VALID,0,VALID,95.2877,VALID,-0.0679233,VALID,18.4601,VALID,27,VALID,0.130996,
2008-12-01, 01:35:00,VALID,918.036,VALID,0,VALID,95.1415,VALID,-0.0509425,VALID,18.3531,VALID,30,VALID,0.078125,
2008-12-01, 01:36:00,VALID,918.01,VALID,0,VALID,96.0036,VALID,0,VALID,18.3169,VALID,12,VALID,0.120384,
2008-12-01, 01:37:00,VALID,917.98,VALID,0,VALID,96.0354,VALID,-0.0169808,VALID,18.3139,VALID,23,VALID,0.0984375,
2008-12-01, 01:38:00,VALID,917.961,VALID,0,VALID,96.1384,VALID,-0.0509425,VALID,18.275,VALID,32,VALID,0.137091,
2008-12-01, 01:39:00,VALID,917.954,VALID,0,VALID,96.3113,VALID,-0.0169808,VALID,18.275,VALID,45,VALID,0,
2008-12-01, 01:40:00,VALID,917.93,VALID,0,VALID,96.2999,VALID,-0.0339617,VALID,18.2523,VALID,45,VALID,0,
2008-12-01, 01:41:00,VALID,917.928,VALID,0,VALID,96.2007,VALID,-0.0169808,VALID,18.2461,VALID,45,VALID,0,
2008-12-01, 01:42:00,VALID,917.917,VALID,0,VALID,96.0023,VALID,-0.0169808,VALID,18.1812,VALID,45,VALID,0,
2008-12-01, 01:43:00,VALID,917.915,VALID,0,VALID,96.1282,VALID,-0.0339617,VALID,18.1129,VALID,52,VALID,0,
2008-12-01, 01:44:00,VALID,917.914,VALID,0,VALID,96.2834,VALID,-0.0169808,VALID,18.048,VALID,50,VALID,0,
2008-12-01, 01:45:00,VALID,917.918,VALID,0,VALID,97.0082,VALID,-0.0509425,VALID,18.0353,VALID,49,VALID,0,
2008-12-01, 01:46:00,VALID,917.903,VALID,0,VALID,97.4227,VALID,-0.0169808,VALID,18.0543,VALID,49,VALID,0,
2008-12-01, 01:47:00,VALID,917.902,VALID,0,VALID,97.5918,VALID,0,VALID,18.0869,VALID,49,VALID,0,
2008-12-01, 01:48:00,VALID,917.891,VALID,0,VALID,97.2561,VALID,0,VALID,18.058,VALID,49,VALID,0,
2008-12-01, 01:49:00,VALID,917.877,VALID,0,VALID,96.8657,VALID,-0.0169808,VALID,17.9669,VALID,49,VALID,0,
2008-12-01, 01:50:00,VALID,917.87,VALID,0,VALID,96.9039,VALID,0,VALID,17.8504,VALID,51,VALID,0,
2008-12-01, 01:51:00,VALID,917.86,VALID,0,VALID,97.7444,VALID,0,VALID,17.8402,VALID,52,VALID,0,
2008-12-01, 01:52:00,VALID,917.834,VALID,0,VALID,97.9225,VALID,0,VALID,17.8991,VALID,52,VALID,0,
2008-12-01, 01:53:00,VALID,917.823,VALID,0,VALID,97.6236,VALID,0,VALID,17.8435,VALID,52,VALID,0,
2008-12-01, 01:54:00,VALID,917.757,VALID,0,VALID,98.0127,VALID,0,VALID,17.8502,VALID,50,VALID,0,
2008-12-01, 01:55:00,VALID,917.733,VALID,0,VALID,97.8004,VALID,-0.0169808,VALID,17.8242,VALID,39,VALID,0,
2008-12-01, 01:56:00,VALID,917.713,VALID,0,VALID,98.0242,VALID,0,VALID,17.7951,VALID,39,VALID,0,
2008-12-01, 01:57:00,VALID,917.689,VALID,0,VALID,98.276,VALID,0,VALID,17.762,VALID,39,VALID,0,
2008-12-01, 01:58:00,VALID,917.681,VALID,0,VALID,98.6346,VALID,-0.0339617,VALID,17.7788,VALID,39,VALID,0,
2008-12-01, 01:59:00,VALID,917.699,VALID,0,VALID,98.7248,VALID,-0.0169808,VALID,17.7752,VALID,39,VALID,0,
2008-12-01, 02:00:00,VALID,917.702,VALID,0,VALID,98.6676,VALID,0,VALID,17.762,VALID,39,VALID,0,
2008-12-01, 02:01:00,VALID,917.686,VALID,0,VALID,98.2543,VALID,0,VALID,17.7012,VALID,39,VALID,0,
2008-12-01, 02:02:00,VALID,917.694,VALID,0,VALID,98.3586,VALID,-0.0169808,VALID,17.6096,VALID,43,VALID,0.4133,
2008-12-01, 02:03:00,VALID,917.675,VALID,0,VALID,99.443,VALID,0,VALID,17.645,VALID,28,VALID,0.419922,
2008-12-01, 02:04:00,VALID,917.666,VALID,0,VALID,99.6783,VALID,0,VALID,17.7624,VALID,36,VALID,0,
2008-12-01, 02:05:00,VALID,917.639,VALID,0,VALID,99.5209,VALID,-0.0339617,VALID,17.7814,VALID,22,VALID,0.0949929,
2008-12-01, 02:06:00,VALID,917.625,VALID,0,VALID,99.5921,VALID,-0.0339617,VALID,17.8599,VALID,23,VALID,0,
2008-12-01, 02:07:00,VALID,917.627,VALID,0,VALID,99.648,VALID,0,VALID,17.9178,VALID,33,VALID,0.248633,
2008-12-01, 02:08:00,VALID,917.634,VALID,0,VALID,99.4484,VALID,-0.0169808,VALID,17.9827,VALID,33,VALID,0.0148983,
2008-12-01, 02:09:00,VALID,917.643,VALID,0,VALID,99.203,VALID,-0.0169808,VALID,18.0443,VALID,24,VALID,0.000762195,
2008-12-01, 02:10:00,VALID,917.653,VALID,0,VALID,98.7935,VALID,0.0169808,VALID,18.0508,VALID,26,VALID,0,
2008-12-01, 02:11:00,VALID,917.654,VALID,0,VALID,98.852,VALID,0,VALID,18.0406,VALID,23,VALID,0.121185,
2008-12-01, 02:12:00,VALID,917.659,VALID,0,VALID,99.0211,VALID,-0.0169808,VALID,18.1092,VALID,17,VALID,0.0025436,
2008-12-01, 02:13:00,VALID,917.652,VALID,0,VALID,98.5214,VALID,0,VALID,18.1314,VALID,32,VALID,0,
2008-12-01, 02:14:00,VALID,917.656,VALID,0,VALID,98.5277,VALID,-0.0339617,VALID,18.1381,VALID,39,VALID,0,
2008-12-01, 02:15:00,VALID,917.658,VALID,0,VALID,98.0979,VALID,0.0169808,VALID,18.1122,VALID,27,VALID,0,
2008-12-01, 02:16:00,VALID,917.669,VALID,0,VALID,97.883,VALID,0,VALID,18.054,VALID,30,VALID,0,
2008-12-01, 02:17:00,VALID,917.661,VALID,0,VALID,98.4095,VALID,0,VALID,18.0348,VALID,30,VALID,0,
2008-12-01, 02:18:00,VALID,917.653,VALID,0,VALID,98.4731,VALID,0.0169808,VALID,18.0371,VALID,28,VALID,0,
2008-12-01, 02:19:00,VALID,917.654,VALID,0,VALID,98.6574,VALID,0,VALID,18.0635,VALID,24,VALID,0,
2008-12-01, 02:20:00,VALID,917.65,VALID,0,VALID,98.6613,VALID,0,VALID,18.07,VALID,26,VALID,0,
2008-12-01, 02:21:00,VALID,917.627,VALID,0,VALID,98.6435,VALID,0,VALID,18.0607,VALID,30,VALID,0,
2008-12-01, 02:22:00,VALID,917.605,VALID,0,VALID,98.6155,VALID,0,VALID,18.0607,VALID,33,VALID,0,
2008-12-01, 02:23:00,VALID,917.599,VALID,0,VALID,98.3624,VALID,-0.0169808,VALID,18.0091,VALID,19,VALID,0.103609,
2008-12-01, 02:24:00,VALID,917.6,VALID,0,VALID,98.5328,VALID,0.0169808,VALID,17.9862,VALID,6,VALID,0.00279018,
2008-12-01, 02:25:00,VALID,917.607,VALID,0,VALID,99.0733,VALID,0,VALID,18.0151,VALID,14,VALID,0.173209,
2008-12-01, 02:26:00,VALID,917.597,VALID,0,VALID,99.0071,VALID,-0.0169808,VALID,18.0705,VALID,16,VALID,0.145064,
2008-12-01, 02:27:00,VALID,917.583,VALID,0,VALID,98.8342,VALID,0,VALID,18.0834,VALID,16,VALID,0,
2008-12-01, 02:28:00,VALID,917.591,VALID,0,VALID,98.9652,VALID,-0.0169808,VALID,18.0929,VALID,24,VALID,0,
2008-12-01, 02:29:00,VALID,917.587,VALID,0,VALID,99.0555,VALID,-0.0169808,VALID,18.1483,VALID,33,VALID,0.2629,
2008-12-01, 02:30:00,VALID,917.581,VALID,0,VALID,98.618,VALID,0,VALID,18.1485,VALID,23,VALID,0.28234,
2008-12-01, 02:31:00,VALID,917.561,VALID,0,VALID,98.6676,VALID,0,VALID,18.1872,VALID,30,VALID,0.0200893,
2008-12-01, 02:32:00,VALID,917.549,VALID,0,VALID,98.5684,VALID,0,VALID,18.177,VALID,20,VALID,0.0956555,
2008-12-01, 02:33:00,VALID,917.531,VALID,0,VALID,98.7795,VALID,-0.0169808,VALID,18.2257,VALID,26,VALID,0.128906,
2008-12-01, 02:34:00,VALID,917.532,VALID,0,VALID,98.5646,VALID,-0.0169808,VALID,18.2711,VALID,22,VALID,0.357701,
2008-12-01, 02:35:00,VALID,917.519,VALID,0,VALID,98.5239,VALID,0,VALID,18.297,VALID,22,VALID,0,
2008-12-01, 02:36:00,VALID,917.509,VALID,0,VALID,98.3866,VALID,0,VALID,18.3304,VALID,22,VALID,0,
2008-12-01, 02:37:00,VALID,917.505,VALID,0,VALID,98.3128,VALID,-0.0339617,VALID,18.3491,VALID,22,VALID,0.143787,
2008-12-01, 02:38:00,VALID,917.506,VALID,0,VALID,98.145,VALID,-0.0169808,VALID,18.3751,VALID,29,VALID,0,
2008-12-01, 02:39:00,VALID,917.5,VALID,0,VALID,97.5918,VALID,-0.0169808,VALID,18.3559,VALID,30,VALID,0.00145349,
2008-12-01, 02:40:00,VALID,917.51,VALID,0,VALID,97.8017,VALID,-0.0339617,VALID,18.3688,VALID,30,VALID,0,
2008-12-01, 02:41:00,VALID,917.502,VALID,0,VALID,97.5664,VALID,0.0169808,VALID,18.3656,VALID,30,VALID,0,
2008-12-01, 02:42:00,VALID,917.489,VALID,0,VALID,97.349,VALID,0,VALID,18.3232,VALID,30,VALID,0,
2008-12-01, 02:43:00,VALID,917.492,VALID,0,VALID,97.5155,VALID,0,VALID,18.2912,VALID,36,VALID,0,
2008-12-01, 02:44:00,VALID,917.484,VALID,0,VALID,97.3312,VALID,-0.0169808,VALID,18.2132,VALID,44,VALID,0.416853,
2008-12-01, 02:45:00,VALID,917.484,VALID,0,VALID,97.5728,VALID,0.0169808,VALID,18.1321,VALID,28,VALID,0.00585938,
2008-12-01, 02:46:00,VALID,917.475,VALID,0,VALID,98.2543,VALID,0,VALID,18.142,VALID,12,VALID,0.0411086,
2008-12-01, 02:47:00,VALID,917.474,VALID,0,VALID,98.4909,VALID,0,VALID,18.1972,VALID,22,VALID,0.00427827,
2008-12-01, 02:48:00,VALID,917.462,VALID,0,VALID,98.3001,VALID,-0.0169808,VALID,18.2644,VALID,18,VALID,0.120808,
2008-12-01, 02:49:00,VALID,917.451,VALID,0,VALID,97.7482,VALID,0,VALID,18.2646,VALID,24,VALID,0.146723,
2008-12-01, 02:50:00,VALID,917.455,VALID,0,VALID,98.3179,VALID,0,VALID,18.3197,VALID,12,VALID,0.565848,
2008-12-01, 02:51:00,VALID,917.456,VALID,0,VALID,98.0483,VALID,0.0339617,VALID,18.4689,VALID,17,VALID,0.383765,
2008-12-01, 02:52:00,VALID,917.461,VALID,0,VALID,97.1569,VALID,0,VALID,18.534,VALID,16,VALID,0.000868056,
2008-12-01, 02:53:00,VALID,917.492,VALID,0,VALID,96.9382,VALID,-0.0169808,VALID,18.5178,VALID,15,VALID,0.000381098,
2008-12-01, 02:54:00,VALID,917.505,VALID,0,VALID,97.0679,VALID,0,VALID,18.521,VALID,26,VALID,0.409884,
2008-12-01, 02:55:00,VALID,917.492,VALID,0,VALID,96.9777,VALID,0,VALID,18.5243,VALID,21,VALID,0,
2008-12-01, 02:56:00,VALID,917.496,VALID,0,VALID,96.9726,VALID,-0.0169808,VALID,18.4884,VALID,17,VALID,0,
2008-12-01, 02:57:00,VALID,917.477,VALID,0,VALID,97.1964,VALID,0,VALID,18.5118,VALID,18,VALID,0,
2008-12-01, 02:58:00,VALID,917.459,VALID,0,VALID,97.1163,VALID,0.0169808,VALID,18.4823,VALID,25,VALID,0,
2008-12-01, 02:59:00,VALID,917.441,VALID,0,VALID,97.3248,VALID,0.0339617,VALID,18.5046,VALID,17,VALID,0.0203887,
2008-12-01, 03:00:00,VALID,917.433,VALID,0,VALID,97.1366,VALID,-0.0169808,VALID,18.5048,VALID,16,VALID,0,
2008-12-01, 03:01:00,VALID,917.43,VALID,0,VALID,97.0616,VALID,0,VALID,18.4752,VALID,16,VALID,0,
2008-12-01, 03:02:00,VALID,917.415,VALID,0,VALID,97.1671,VALID,0.0169808,VALID,18.4525,VALID,16,VALID,0,
2008-12-01, 03:03:00,VALID,917.427,VALID,0,VALID,97.2193,VALID,0.0339617,VALID,18.4233,VALID,12,VALID,0,
2008-12-01, 03:04:00,VALID,917.426,VALID,0,VALID,97.2371,VALID,0,VALID,18.4013,VALID,4,VALID,0,
2008-12-01, 03:05:00,VALID,917.424,VALID,0,VALID,97.3871,VALID,0.0339617,VALID,18.3649,VALID,1,VALID,0,
2008-12-01, 03:06:00,VALID,917.417,VALID,0,VALID,97.4469,VALID,0.0339617,VALID,18.3649,VALID,360,VALID,0,
2008-12-01, 03:07:00,VALID,917.42,VALID,0,VALID,97.41,VALID,0.0169808,VALID,18.3357,VALID,360,VALID,0,
2008-12-01, 03:08:00,VALID,917.404,VALID,0,VALID,97.4507,VALID,0,VALID,18.316,VALID,360,VALID,0,
2008-12-01, 03:09:00,VALID,917.396,VALID,0,VALID,97.7368,VALID,0.0169808,VALID,18.3327,VALID,360,VALID,0,
2008-12-01, 03:10:00,VALID,917.384,VALID,0,VALID,97.8207,VALID,0.0169808,VALID,18.3292,VALID,360,VALID,0,
2008-12-01, 03:11:00,VALID,917.378,VALID,0,VALID,97.9695,VALID,0.0509425,VALID,18.3422,VALID,360,VALID,0,
2008-12-01, 03:12:00,VALID,917.386,VALID,0,VALID,97.8042,VALID,0.0169808,VALID,18.3327,VALID,360,VALID,0,
2008-12-01, 03:13:00,VALID,917.39,VALID,0,VALID,97.9275,VALID,0,VALID,18.3294,VALID,360,VALID,0,
2008-12-01, 03:14:00,VALID,917.396,VALID,0,VALID,97.9199,VALID,0,VALID,18.3,VALID,360,VALID,0,
2008-12-01, 03:15:00,VALID,917.406,VALID,0,VALID,97.911,VALID,0,VALID,18.2739,VALID,360,VALID,0,
2008-12-01, 03:16:00,VALID,917.404,VALID,0,VALID,97.8805,VALID,0.0169808,VALID,18.2451,VALID,360,VALID,0,
2008-12-01, 03:17:00,VALID,917.403,VALID,0,VALID,98.1755,VALID,0.0509425,VALID,18.2546,VALID,360,VALID,0,
2008-12-01, 03:18:00,VALID,917.39,VALID,0,VALID,98.3332,VALID,0.0339617,VALID,18.2576,VALID,2,VALID,0,
2008-12-01, 03:19:00,VALID,917.393,VALID,0,VALID,98.0865,VALID,0.0509425,VALID,18.2319,VALID,7,VALID,0,
2008-12-01, 03:20:00,VALID,917.372,VALID,0,VALID,98.1056,VALID,0,VALID,18.2058,VALID,21,VALID,0.0481468,
2008-12-01, 03:21:00,VALID,917.371,VALID,0,VALID,98.1259,VALID,0.0339617,VALID,18.1768,VALID,36,VALID,0.0200639,
2008-12-01, 03:22:00,VALID,917.369,VALID,0,VALID,98.3573,VALID,0,VALID,18.1573,VALID,35,VALID,0.046875,
2008-12-01, 03:23:00,VALID,917.354,VALID,0,VALID,98.7693,VALID,0,VALID,18.177,VALID,32,VALID,0.203497,
2008-12-01, 03:24:00,VALID,917.346,VALID,0,VALID,98.9079,VALID,0.0169808,VALID,18.2349,VALID,30,VALID,0,
2008-12-01, 03:25:00,VALID,917.346,VALID,0,VALID,98.7503,VALID,-0.0169808,VALID,18.2708,VALID,30,VALID,0,
2008-12-01, 03:26:00,VALID,917.352,VALID,0,VALID,98.7007,VALID,0.0169808,VALID,18.297,VALID,36,VALID,0.0466974,
2008-12-01, 03:27:00,VALID,917.345,VALID,0,VALID,98.618,VALID,0,VALID,18.3332,VALID,38,VALID,0.000186012,
2008-12-01, 03:28:00,VALID,917.331,VALID,0,VALID,98.6104,VALID,0,VALID,18.3651,VALID,38,VALID,0.0603693,
2008-12-01, 03:29:00,VALID,917.338,VALID,0,VALID,98.1348,VALID,0,VALID,18.3651,VALID,38,VALID,0.027798,
2008-12-01, 03:30:00,VALID,917.33,VALID,0,VALID,98.0089,VALID,0.0509425,VALID,18.3162,VALID,38,VALID,0.266513,
2008-12-01, 03:31:00,VALID,917.32,VALID,0,VALID,98.2238,VALID,0.0339617,VALID,18.3128,VALID,38,VALID,0,
2008-12-01, 03:32:00,VALID,917.338,VALID,0,VALID,98.2086,VALID,0,VALID,18.3065,VALID,38,VALID,0,
2008-12-01, 03:33:00,VALID,917.317,VALID,0,VALID,97.9695,VALID,0,VALID,18.2648,VALID,38,VALID,0.139881,
2008-12-01, 03:34:00,VALID,917.314,VALID,0,VALID,98.056,VALID,0.0169808,VALID,18.1865,VALID,38,VALID,0,
2008-12-01, 03:35:00,VALID,917.32,VALID,0,VALID,98.1323,VALID,0.0339617,VALID,18.1573,VALID,38,VALID,0,
2008-12-01, 03:36:00,VALID,917.321,VALID,0,VALID,98.3484,VALID,-0.0169808,VALID,18.1351,VALID,38,VALID,0,
2008-12-01, 03:37:00,VALID,917.317,VALID,0,VALID,98.6524,VALID,0.0169808,VALID,18.099,VALID,38,VALID,0,
2008-12-01, 03:38:00,VALID,917.328,VALID,0,VALID,98.5366,VALID,0.0169808,VALID,18.0237,VALID,38,VALID,0.117001,
2008-12-01, 03:39:00,VALID,917.337,VALID,0,VALID,98.7999,VALID,0,VALID,17.9755,VALID,38,VALID,0,
2008-12-01, 03:40:00,VALID,917.345,VALID,0,VALID,99.1038,VALID,0,VALID,17.9431,VALID,34,VALID,0,
2008-12-01, 03:41:00,VALID,917.356,VALID,0,VALID,99.512,VALID,-0.0169808,VALID,17.9565,VALID,29,VALID,0,